Location: Unspecified
(48.8656°N, 0.0000°E)
Time: 00:18:58
(UTC+00:00)

Vanguard 3 - Pass Details

Date: 27 June 2019
Orbit: 507 x 3264 km, 33.4° (Epoch: 20 July)

Event Time Altitude Azimuth Distance (km) Brightness Sun altitude
Rises 12:25:21 0° 255° (WSW) 6,356 11.9 64.1°
Reaches altitude 10° 12:30:43 10° 247° (WSW) 4,894 11.5 63.9°
Maximum altitude 12:41:13 31° 193° (SSW) 2,519 10.8 63.4°
Drops below altitude 10° 12:47:50 10° 134° (SE) 3,029 10.4 63.0°
Sets 12:50:20 0° 123° (ESE) 3,689 10.6 62.8°
